Location: Borealis Mine
(38.3824°N, 118.7610°W)
Time: 17:22:06
(UTC+00:00)

ADEOS - Pass Details

Date: 18 September 2020
Orbit: 792 x 795 km, 98.9° (Epoch: 19 October)

Event Time Altitude Azimuth Distance (km) Brightness Sun altitude
Rises 12:15:27 0° 15° (NNE) 3,299 7.2 -17.1°
Reaches altitude 10° 12:17:48 10° 17° (NNE) 2,365 6.5 -16.7°
Maximum altitude 12:23:01 77° 103° (ESE) 815 3.7 -15.7°
Drops below altitude 10° 12:28:13 10° 190° (S) 2,350 5.8 -14.7°
Sets 12:30:32 0° 191° (SSW) 3,275 6.5 -14.3°
